Location: Unspecified
(0.0000°N, 0.0000°E)
Time: 12:14:22
(UTC+00:00)

A-11 Canister half - Pass Details

Date: 27 November 2019
Orbit: 1526 x 1683 km, 47.3° (Epoch: 10 December)

Event Time Altitude Azimuth Distance (km) Brightness Sun altitude
Rises 07:23:19 0° 234° (SW) 4,889 11.3 22.3°
Reaches altitude 10° 07:26:37 10° 240° (WSW) 3,915 10.9 23.0°
Maximum altitude 07:36:05 46° 310° (NW) 2,143 9.7 25.2°
Drops below altitude 10° 07:45:37 10° 20° (NNE) 3,928 11.2 27.4°
Sets 07:48:59 0° 27° (NNE) 4,907 11.7 28.2°
